Location: Borbetomagus
(49.6328°N, 8.3592°E)
Time: 00:15:06
(UTC+00:00)

Cosmos 1707 - Pass Details

Date: 19 May 2025
Orbit: 421 x 430 km, 82.5° (Epoch: 22 June)

Event Time Altitude Azimuth Distance (km) Brightness Sun altitude
Exits shadow 22:53:25 83° 106° (ESE) 444 2.2 -20.1°
Maximum altitude 22:53:26 83° 100° (E) 444 2.2 -20.1°
Drops below altitude 10° 22:56:49 10° 11° (NNE) 1,553 6.2 -20.1°
Sets 22:58:53 0° 11° (N) 2,429 7.5 -20.2°
